• In Sweden
  • List of Countries
  • For 7 days
  • Water Temperature
  • Satellite Maps
  • Weather Map
  • Weather Widgets
  • user-avatar
    Login

    Hourly Weather Gorodische

    Today, 15 November, Thursday

    Time Temperature Precipitation Wind Pressure Humidity
    00:00 -3°C° 0 mm 4 mps 754 mmHg 51%
    01:00 -3°C° 0 mm 4 mps 754 mmHg 52%
    02:00 -4°C° 0 mm 4 mps 754 mmHg 53%
    03:00 -4°C° 0 mm 3 mps 754 mmHg 53%
    04:00 -4°C° 0 mm 3 mps 754 mmHg 55%
    05:00 -4°C° 0 mm 3 mps 755 mmHg 56%
    06:00 -4°C° 0 mm 3 mps 755 mmHg 58%
    07:00 -4°C° 0 mm 3 mps 756 mmHg 58%
    08:00 -4°C° 0 mm 3 mps 756 mmHg 59%
    09:00 -4°C° 0 mm 3 mps 757 mmHg 59%
    10:00 -4°C° 0 mm 3 mps 757 mmHg 56%
    11:00 -2°C° 0 mm 3 mps 757 mmHg 53%
    12:00 -1°C° 0 mm 3 mps 758 mmHg 51%
    13:00 -1°C° 0 mm 3 mps 758 mmHg 50%
    14:00 -1°C° 0 mm 3 mps 758 mmHg 49%
    15:00 -1°C° 0 mm 2 mps 758 mmHg 48%
    16:00 -2°C° 0 mm 2 mps 759 mmHg 50%
    17:00 -2°C° 0 mm 2 mps 759 mmHg 51%
    18:00 -3°C° 0 mm 2 mps 759 mmHg 52%
    19:00 -3°C° 0 mm 2 mps 760 mmHg 51%
    20:00 -3°C° 0 mm 2 mps 760 mmHg 50%
    21:00 -3°C° 0 mm 2 mps 760 mmHg 49%
    22:00 -3°C° 0 mm 2 mps 761 mmHg 49%
    23:00 -4°C° 0 mm 2 mps 761 mmHg 48%

    Tomorrow, 16 November, Friday

    Time Temperature Precipitation Wind Pressure Humidity
    00:00 -2°C° 0 mm 1 mps 761 mmHg 47%
    01:00 -2°C° 0 mm 1 mps 762 mmHg 46%
    02:00 -2°C° 0 mm 1 mps 762 mmHg 45%
    03:00 -2°C° 0 mm 1 mps 762 mmHg 44%
    04:00 -2°C° 0 mm 1 mps 762 mmHg 43%
    05:00 -2°C° 0 mm 1 mps 762 mmHg 41%
    06:00 -4°C° 0 mm 2 mps 763 mmHg 40%
    07:00 -4°C° 0 mm 2 mps 763 mmHg 38%
    08:00 -2°C° 0 mm 1 mps 763 mmHg 36%
    09:00 -2°C° 0 mm 1 mps 764 mmHg 34%
    10:00 -1°C° 0 mm 1 mps 764 mmHg 31%
    11:00 -1°C° 0 mm 1 mps 764 mmHg 27%
    12:00 -2°C° 0 mm 2 mps 764 mmHg 24%
    13:00 +1°C° 0 mm 1 mps 764 mmHg 25%
    14:00 +1°C° 0 mm 1 mps 764 mmHg 25%
    15:00 +1°C° 0 mm 1 mps 764 mmHg 25%
    16:00 0°C° 0 mm 1 mps 764 mmHg 26%
    17:00 -1°C° 0 mm 1 mps 764 mmHg 27%
    18:00 -1°C° 0 mm 1 mps 764 mmHg 27%
    19:00 -2°C° 0 mm 1 mps 764 mmHg 27%
    20:00 -2°C° 0 mm 1 mps 764 mmHg 27%
    21:00 -2°C° 0 mm 1 mps 764 mmHg 26%
    22:00 -2°C° 0 mm 1 mps 764 mmHg 26%
    23:00 -2°C° 0 mm 1 mps 764 mmHg 25%

    Day after tomorrow, 17 November, Saturday

    Time Temperature Precipitation Wind Pressure Humidity
    00:00 -2°C° 0 mm 1 mps 763 mmHg 25%
    01:00 -2°C° 0 mm 1 mps 763 mmHg 24%
    02:00 -3°C° 0 mm 0 mps 763 mmHg 24%
    03:00 -3°C° 0 mm 0 mps 763 mmHg 23%
    04:00 -3°C° 0 mm 0 mps 763 mmHg 23%
    05:00 -2°C° 0 mm 1 mps 763 mmHg 24%
    06:00 -2°C° 0 mm 1 mps 762 mmHg 24%
    07:00 -2°C° 0 mm 1 mps 762 mmHg 24%
    08:00 -2°C° 0 mm 1 mps 762 mmHg 24%
    09:00 -2°C° 0 mm 1 mps 762 mmHg 24%
    10:00 -3°C° 0 mm 2 mps 761 mmHg 23%
    11:00 -2°C° 0 mm 2 mps 761 mmHg 22%
    12:00 -1°C° 0 mm 2 mps 760 mmHg 21%
    13:00 -1°C° 0 mm 2 mps 759 mmHg 22%
    14:00 -1°C° 0 mm 3 mps 759 mmHg 23%
    15:00 -1°C° 0 mm 3 mps 758 mmHg 24%
    16:00 -2°C° 0 mm 3 mps 757 mmHg 25%
    17:00 -2°C° 0 mm 3 mps 757 mmHg 27%
    18:00 -4°C° 0 mm 3 mps 756 mmHg 29%
    19:00 -4°C° 0 mm 4 mps 755 mmHg 31%
    20:00 -3°C° 0 mm 4 mps 754 mmHg 33%
    21:00 -3°C° 0 mm 4 mps 754 mmHg 35%
    22:00 -3°C° 0.1 mm 4 mps 753 mmHg 44%
    23:00 -3°C° 0.1 mm 4 mps 752 mmHg 54%

    18 November, Sunday

    Time Temperature Precipitation Wind Pressure Humidity
    00:00 -4°C° 0.1 mm 4 mps 751 mmHg 64%
    01:00 -4°C° 0.3 mm 4 mps 751 mmHg 72%
    02:00 -4°C° 0.3 mm 4 mps 750 mmHg 80%
    03:00 -4°C° 0.3 mm 4 mps 749 mmHg 89%
    04:00 -4°C° 0.1 mm 4 mps 748 mmHg 89%
    05:00 -3°C° 0.1 mm 4 mps 747 mmHg 90%
    06:00 -2°C° 0.1 mm 3 mps 747 mmHg 91%
    07:00 -2°C° 0.1 mm 3 mps 746 mmHg 92%
    08:00 -2°C° 0.1 mm 3 mps 746 mmHg 93%
    09:00 -2°C° 0.1 mm 3 mps 745 mmHg 94%
    10:00 -1°C° 0.1 mm 2 mps 745 mmHg 93%
    11:00 -1°C° 0.1 mm 2 mps 745 mmHg 92%
    12:00 -1°C° 0.1 mm 2 mps 745 mmHg 91%
    13:00 +2°C° 0.1 mm 1 mps 744 mmHg 92%
    14:00 +2°C° 0.1 mm 1 mps 744 mmHg 93%
    15:00 +2°C° 0.1 mm 1 mps 744 mmHg 94%
    16:00 +1°C° 0.1 mm 1 mps 744 mmHg 94%
    17:00 +1°C° 0.1 mm 1 mps 744 mmHg 95%
    18:00 0°C° 0.1 mm 0 mps 744 mmHg 96%
    19:00 +1°C° 0.1 mm 1 mps 744 mmHg 96%
    20:00 +1°C° 0.1 mm 1 mps 744 mmHg 96%
    21:00 0°C° 0.1 mm 1 mps 744 mmHg 96%
    22:00 -2°C° 0.1 mm 2 mps 745 mmHg 96%
    23:00 -2°C° 0.1 mm 2 mps 745 mmHg 96%

    19 November, Monday

    Time Temperature Precipitation Wind Pressure Humidity
    00:00 -2°C° 0.1 mm 2 mps 745 mmHg 96%
    01:00 -2°C° 0.1 mm 3 mps 745 mmHg 95%
    02:00 -2°C° 0.1 mm 3 mps 746 mmHg 94%
    03:00 -2°C° 0.1 mm 3 mps 746 mmHg 93%
    04:00 -4°C° 0.1 mm 4 mps 746 mmHg 90%
    05:00 -4°C° 0.1 mm 4 mps 747 mmHg 88%
    06:00 -4°C° 0.1 mm 4 mps 747 mmHg 86%
    07:00 -4°C° 0 mm 4 mps 748 mmHg 82%
    08:00 -5°C° 0 mm 4 mps 748 mmHg 78%
    09:00 -5°C° 0 mm 4 mps 749 mmHg 74%
    10:00 -5°C° 0 mm 4 mps 749 mmHg 71%
    11:00 -5°C° 0 mm 4 mps 750 mmHg 68%
    12:00 -4°C° 0 mm 4 mps 750 mmHg 65%
    13:00 -4°C° 0 mm 4 mps 750 mmHg 69%
    14:00 -4°C° 0 mm 4 mps 751 mmHg 72%
    15:00 -4°C° 0 mm 4 mps 751 mmHg 76%
    16:00 -4°C° 0 mm 4 mps 751 mmHg 78%
    17:00 -5°C° 0 mm 4 mps 751 mmHg 81%
    18:00 -5°C° 0 mm 4 mps 751 mmHg 83%
    19:00 -5°C° 0 mm 4 mps 752 mmHg 83%
    20:00 -5°C° 0 mm 4 mps 752 mmHg 84%
    21:00 -5°C° 0 mm 4 mps 752 mmHg 84%
    22:00 -5°C° 0 mm 4 mps 752 mmHg 84%
    23:00 -5°C° 0 mm 4 mps 752 mmHg 84%

    20 November, Tuesday

    Time Temperature Precipitation Wind Pressure Humidity
    00:00 -5°C° 0 mm 4 mps 752 mmHg 84%
    01:00 -5°C° 0 mm 3 mps 752 mmHg 86%
    02:00 -5°C° 0 mm 3 mps 752 mmHg 87%
    03:00 -6°C° 0 mm 3 mps 752 mmHg 89%
    04:00 -5°C° 0 mm 3 mps 752 mmHg 90%
    05:00 -5°C° 0 mm 3 mps 752 mmHg 91%
    06:00 -5°C° 0 mm 3 mps 752 mmHg 92%
    07:00 -5°C° 0 mm 3 mps 752 mmHg 93%
    08:00 -5°C° 0 mm 3 mps 752 mmHg 93%
    09:00 -5°C° 0 mm 3 mps 752 mmHg 93%
    10:00 -5°C° 0 mm 3 mps 752 mmHg 91%
    11:00 -4°C° 0 mm 3 mps 752 mmHg 89%
    12:00 -3°C° 0 mm 2 mps 752 mmHg 87%
    13:00 -3°C° 0 mm 2 mps 751 mmHg 87%
    14:00 -3°C° 0 mm 2 mps 751 mmHg 87%
    15:00 -3°C° 0 mm 2 mps 750 mmHg 87%
    16:00 -3°C° 0 mm 2 mps 750 mmHg 88%
    17:00 -4°C° 0 mm 2 mps 750 mmHg 90%
    18:00 -4°C° 0 mm 2 mps 750 mmHg 91%
    19:00 -4°C° 0 mm 2 mps 749 mmHg 91%
    20:00 -5°C° 0 mm 2 mps 749 mmHg 91%
    21:00 -5°C° 0 mm 2 mps 749 mmHg 92%
    22:00 -5°C° 0 mm 2 mps 748 mmHg 92%
    23:00 -5°C° 0 mm 2 mps 748 mmHg 91%
    Show more